This is the latest recevied weather packets stored in our database for station/object WE3WEE. If no packets are shown the sender has not sent any weather packets the latest 10 day(s).
| Time | Temp. | Humidity | Pressure | Rain* | Wind** | Luminosity | Snow |
|---|---|---|---|---|---|---|---|
| 1777096405 | 11.67° C | 69% | 1011.7 hPa | 0 mm | - | - | - |
| 1777096101 | 11.67° C | 70% | 1011.7 hPa | 0 mm | - | - | - |
| 1777095797 | 11.67° C | 70% | 1011.7 hPa | 0 mm | - | - | - |
| 1777095495 | 11.67° C | 70% | 1011.7 hPa | 0 mm | - | - | - |
| 1777095190 | 11.11° C | 69% | 1011.7 hPa | 0 mm | - | - | - |
| 1777094885 | 11.11° C | 73% | 1011.7 hPa | 0 mm | - | - | - |
| 1777094581 | 11.67° C | 71% | 1011.7 hPa | 0 mm | - | - | - |
| 1777094279 | 11.67° C | 69% | 1011.7 hPa | 0 mm | - | - | - |
| 1777093975 | 11.67° C | 68% | 1011.7 hPa | 0 mm | - | - | - |
| 1777093670 | 11.67° C | 66% | 1011.7 hPa | 0 mm | - | - | - |
| 1777093367 | 11.67° C | 66% | 1011.7 hPa | 0 mm | - | - | - |
| 1777093063 | 12.22° C | 64% | 1011.7 hPa | 0 mm | - | - | - |
| 1777092757 | 12.22° C | 63% | 1011.7 hPa | 0 mm | - | - | - |
| 1777092453 | 12.22° C | 61% | 1011.7 hPa | 0 mm | - | - | - |
| 1777092149 | 12.22° C | 59% | 1011.7 hPa | 0 mm | - | - | - |
| 1777091845 | 12.22° C | 60% | 1011.7 hPa | 0 mm | - | - | - |
| 1777091540 | 12.22° C | 58% | 1011.7 hPa | 0 mm | - | - | - |
| 1777091236 | 11.67° C | 56% | 1011.7 hPa | 0 mm | - | - | - |
| 1777090932 | 10.56° C | 58% | 1011.7 hPa | 0 mm | - | - | - |
| 1777090629 | 10.56° C | 70% | 1011.7 hPa | 0 mm | - | - | - |
| 1777090325 | 10.56° C | 80% | 1010.6 hPa | 0 mm | - | - | - |
| 1777090022 | 10° C | 77% | 1010.6 hPa | 0 mm | - | - | - |
| 1777089716 | 10° C | 75% | 1010.6 hPa | 0 mm | - | - | - |
| 1777089412 | 10° C | 72% | 1010.6 hPa | 0 mm | - | - | - |
| 1777089108 | 10.56° C | 71% | 1010.6 hPa | 0 mm | - | - | - |
* Rain latest hour (hover to see other rain measurements)
** Current wind speed in m/s (hover to see current wind gust speed)